FW9528 Weather Reports


time (UTC)temp
C
wind
direction
speed
KPH
gust
KPH
rain 1hr
cm
rain 24hr
cm
rain mn
cm
humidity
%
barometer
mb
20260509023046 12 240 12.9 24.1 0.00 0.20 0.20 88 1009.2
20260509021548 12 268 9.7 20.9 0.00 0.20 0.20 88 1009.3
20260509020053 12 258 9.7 20.9 0.00 0.20 0.20 88 1009.2
20260509014550 12 225 6.4 14.5 0.00 0.20 0.20 88 1009.1
20260509013054 12 215 4.8 17.7 0.03 0.20 0.20 89 1009.1
20260509011549 12 256 6.4 12.9 0.03 0.20 0.20 89 1009.1
20260509010053 12 232 8.0 14.5 0.03 0.20 0.20 89 1009.1
20260509004546 12 238 4.8 14.5 0.03 0.20 0.20 89 1009.2
20260509003044 12 245 8.0 12.9 0.03 0.18 0.18 89 1009.3
20260509001549 12 243 8.0 14.5 0.03 0.18 0.18 89 1009.3
20260509000049 12 224 4.8 11.3 0.03 0.18 0.18 90 1009.4
20260508234547 12 235 8.0 14.5 0.03 0.18 0.18 89 1009.5
20260508233047 12 234 8.0 12.9 0.03 0.15 0.15 89 1009.6
20260508231546 12 238 4.8 9.7 0.08 0.15 0.15 89 1009.6
20260508230047 12 186 1.6 4.8 0.10 0.15 0.15 89 1009.4
20260508224544 12 188 1.6 9.7 0.13 0.15 0.15 88 1009.5
20260508223047 12 299 3.2 11.3 0.13 0.13 0.13 87 1009.9
20260508221547 13 302 8.0 19.3 0.08 0.08 0.08 85 1010.1
20260508220041 13 333 8.0 14.5 0.05 0.05 0.05 83 1009.8
20260508214537 13 328 8.0 14.5 0.03 0.03 0.03 80 1009.6
20260508213044 14 333 9.7 19.3 0.00 0.00 0.00 77 1009.4
20260508211552 15 346 8.0 12.9 0.00 0.00 0.00 72 1009.2
20260508210040 15 348 4.8 12.9 0.00 0.00 0.00 73 1009.5
20260508204540 15 294 6.4 19.3 0.00 0.00 0.00 69 1009.6
20260508203046 16 291 6.4 14.5 0.00 0.00 0.00 64 1009.8
20260508201545 17 252 9.7 20.9 0.00 0.00 0.00 62 1010.1
20260508200100 17 252 8.0 17.7 0.00 0.00 0.00 60 1010.2
20260508194542 16 251 11.3 24.1 0.00 0.00 0.00 59 1010.3
20260508193122 17 258 16.1 29.0 0.00 0.00 0.00 58 1010.4
20260508191550 17 262 17.7 33.8 0.00 0.00 0.00 58 1010.6
20260508190043 17 254 24.1 41.8 0.00 0.00 0.00 56 1010.7
20260508184554 17 258 22.5 35.4 0.00 0.00 0.00 55 1010.7
20260508183109 17 260 19.3 38.6 0.00 0.00 0.00 55 1010.7
20260508181603 18 264 20.9 35.4 0.00 0.00 0.00 56 1010.7
20260508180049 18 251 22.5 37.0 0.00 0.00 0.00 54 1010.7
20260508174551 18 227 17.7 29.0 0.00 0.00 0.00 58 1010.8
20260508173047 18 276 14.5 29.0 0.00 0.00 0.00 56 1011.2
20260508171543 17 261 19.3 32.2 0.00 0.00 0.00 56 1011.4
20260508170053 17 273 16.1 30.6 0.00 0.00 0.00 59 1011.6
20260508164546 16 203 16.1 30.6 0.00 0.00 0.00 58 1011.9
20260508163037 16 252 12.9 29.0 0.00 0.00 0.00 59 1012.2
20260508161546 17 241 19.3 27.4 0.00 0.00 0.00 57 1012.3
20260508160043 16 237 16.1 25.7 0.00 0.00 0.00 59 1012.5
20260508154603 16 248 14.5 24.1 0.00 0.00 0.00 60 1012.8
20260508153041 15 288 14.5 25.7 0.00 0.00 0.00 60 1012.8
20260508151540 15 244 14.5 27.4 0.00 0.00 0.00 60 1012.8
20260508150040 15 256 14.5 29.0 0.00 0.00 0.00 60 1012.8
20260508144600 15 215 12.9 25.7 0.00 0.00 0.00 62 1013.0
20260508143042 14 242 14.5 25.7 0.00 0.00 0.00 61 1013.3
20260508141543 13 259 16.1 22.5 0.00 0.00 0.00 62 1013.4
20260508140042 13 251 12.9 19.3 0.00 0.00 0.00 63 1013.6
20260508134555 12 231 12.9 22.5 0.00 0.00 0.00 63 1013.6
20260508133049 12 225 8.0 19.3 0.00 0.00 0.00 64 1013.6
20260508131549 12 223 9.7 17.7 0.00 0.00 0.00 65 1013.6
20260508130042 11 222 8.0 14.5 0.00 0.00 0.00 68 1013.5
20260508124548 10 0 3.2 8.0 0.00 0.00 0.00 72 1013.5
20260508123051 10 197 4.8 8.0 0.00 0.00 0.00 72 1013.7
20260508121538 10 215 1.6 8.0 0.00 0.00 0.00 72 1013.6
20260508120043 10 198 3.2 6.4 0.00 0.00 0.00 72 1013.5
20260508114551 10 222 4.8 12.9 0.00 0.00 0.00 70 1013.3
20260508113040 10 237 4.8 11.3 0.00 0.00 0.00 69 1013.4
20260508111553 9 241 6.4 11.3 0.00 0.00 0.00 69 1013.3
20260508110049 9 221 4.8 11.3 0.00 0.00 0.00 71 1013.0
20260508104548 8 5 3.2 6.4 0.00 0.00 0.00 74 1013.2
20260508103043 8 0 0.0 4.8 0.00 0.00 0.00 72 1012.9
20260508101542 8 13 3.2 8.0 0.00 0.00 0.00 73 1012.9
20260508100048 9 295 3.2 9.7 0.00 0.00 0.00 71 1012.7
20260508094541 9 215 4.8 9.7 0.00 0.00 0.00 70 1012.6
20260508093046 9 238 4.8 12.9 0.00 0.00 0.00 69 1012.8
20260508091546 10 239 4.8 12.9 0.00 0.00 0.00 68 1012.8
20260508090106 10 249 8.0 17.7 0.00 0.00 0.00 67 1012.8
20260508084548 10 274 11.3 22.5 0.00 0.00 0.00 66 1012.9
20260508083048 10 243 6.4 19.3 0.00 0.00 0.00 65 1013.0
20260508081556 10 281 8.0 16.1 0.00 0.00 0.00 65 1013.1
20260508080040 10 239 9.7 16.1 0.00 0.00 0.00 65 1013.2
20260508074548 10 259 4.8 12.9 0.00 0.00 0.00 66 1013.1
20260508073102 10 242 6.4 16.1 0.00 0.00 0.00 65 1013.1
20260508071548 10 273 9.7 20.9 0.00 0.00 0.00 65 1013.0
20260508070052 10 248 11.3 25.7 0.00 0.00 0.00 64 1013.1
20260508064557 10 261 9.7 19.3 0.00 0.00 0.00 65 1013.3
20260508063051 10 219 9.7 17.7 0.00 0.00 0.00 66 1013.3
20260508061545 10 229 8.0 19.3 0.00 0.00 0.00 66 1013.3
20260508054547 10 252 8.0 16.1 0.00 0.00 0.00 65 1013.4
20260508053047 10 226 6.4 14.5 0.00 0.00 0.00 66 1013.4
20260508051620 10 232 8.0 14.5 0.00 0.00 0.00 67 1013.5
20260508050050 10 245 8.0 17.7 0.00 0.00 0.00 68 1013.5
20260508044550 10 246 6.4 14.5 0.00 0.00 0.00 70 1013.5
20260508043049 9 231 4.8 12.9 0.00 0.00 0.00 72 1013.5
20260508041546 9 235 4.8 12.9 0.00 0.00 0.00 74 1013.5
20260508040052 9 230 6.4 12.9 0.00 0.00 0.00 75 1013.5
20260508034551 8 205 4.8 11.3 0.00 0.00 0.00 77 1013.4
20260508033057 8 209 1.6 4.8 0.00 0.00 0.00 77 1013.4
20260508031556 8 193 3.2 11.3 0.00 0.00 0.00 77 1013.4
20260508030059 8 207 3.2 6.4 0.00 0.00 0.00 78 1013.4
20260508024613 8 0 1.6 4.8 0.00 0.00 0.00 78 1013.5